Regional Weather Roundup
Issued by NWS

Home | Current Version | Previous Version | Graphics & Text | Print | Product List | Glossary On
Versions: 1 2 3 4 5 6 7 8 9 10 11 12 13 14 15 16 17 18 19 20 21 22 23 24 25 26 27 28 29 30 31 32 33 34 35 36 37 38 39 40 41 42 43 44 45 46 47 48 49 50
000
ASUS43 KLMK 042210
RWRKY
KENTUCKY REGIONAL WEATHER ROUNDUP
NATIONAL WEATHER SERVICE LOUISVILLE KY
600 PM EDT TUE AUG 04 2015

NOTE "FAIR" INDICATES FEW OR NO CLOUDS BELOW 12,000 FEET
WITH NO SIGNIFICANT WEATHER AND/OR OBSTRUCTIONS TO VISIBILITY.

KYZ001>023-026-027-061>063-070>075-042300-
WESTERN AND SOUTH CENTRAL KENTUCKY

CITY           SKY/WX    TMP DP  RH WIND       PRES   REMARKS
PADUCAH        PTSUNNY   89  75  63 SW3       29.94S HX  99
HENDERSON      CLOUDY    73  64  73 W13G20    29.95R
OWENSBORO      CLOUDY    76  67  73 N7        29.95S
HOPKINSVILLE   SUNNY     90  72  54 W9        29.95F HX  97
BOWLING GREEN  MOSUNNY   90  69  50 W7        29.96S HX  94
GLASGOW        CLOUDY    87  69  54 W6        29.97S HX  91
$$

KYZ024-025-028>034-038-045-046-053-042300-
NORTH CENTRAL KENTUCKY

CITY           SKY/WX    TMP DP  RH WIND       PRES   REMARKS
LOUISVILLE/SDF PTSUNNY   89  69  51 W10       29.94F HX  93
LOUISVILLE/LOU MOSUNNY   89  68  49 NW7       29.95F HX  93
FORT KNOX      PTSUNNY   85  72  65 NW5       29.96R THUNDER HX  91
$$

KYZ035>037-039>044-047>052-055>060-089>105-042300-
NORTHEAST KENTUCKY

CITY           SKY/WX    TMP DP  RH WIND       PRES   REMARKS
LEXINGTON      PTSUNNY   82  70  66 SW6       29.99S
COVINGTON      CLOUDY    81  61  50 NW12      29.98S
FRANKFORT      PTSUNNY   86  67  52 NW8       29.97S
$$

KYZ054-064>069-076>088-106>120-042300-
SOUTHEAST KENTUCKY

CITY           SKY/WX    TMP DP  RH WIND       PRES   REMARKS
JACKSON        RAIN      71  68  90 CALM      30.03R FOG
LONDON         CLOUDY    82  66  58 W10G17    30.02S
SOMERSET       NOT AVBL
MIDDLESBORO    PTSUNNY   87  70  57 CALM      30.01R HX  92
MONTICELLO     MOCLDY    77  70  78 CALM      30.04F
$$



USA.gov is the U.S. government's official web portal to all federal, state and local government web resources and services.